Regional Weather Roundup
Issued by NWS Wakefield, VA

Home | Current Version | Previous Version | Text Only | Print | Product List | Glossary Off
Versions: 1 2 3 4 5 6 7 8 9 10 11 12 13 14 15 16 17 18 19 20 21 22 23 24 25 26 27 28 29 30 31 32 33 34 35 36 37 38 39 40 41 42 43 44 45 46 47 48 49 50
277 ASUS41 KAKQ 232216 RWRAKQ REGIONAL WEATHER ROUNDUP NATIONAL WEATHER SERVICE WAKEFIELD VA 600 PM EDT TUE MAY 23 2017 Note: "fair" indicates few or no clouds below 12,000 feet with no significant weather and/or obstructions to visibility. * = Denotes station may not report precipitation (e.g., rain,snow,etc.), thunder or fog. VAZ042-051-052>054-056-232300- NORTHERN VIRGINIA CITY SKY/WX TMP DP RH WIND PRES REMARKS WASH NATIONAL LGT RAIN 66 60 81 SE8 29.83F DULLES LGT RAIN 65 57 75 CALM 29.82F FORT BELVOIR LGT RAIN 64 59 82 E3 29.81F QUANTICO CLOUDY 66 62 87 E10 29.81F FREDERICKSBRG* LGT RAIN 64 64 100 E5 29.80F STAFFORD* RAIN 63 63 100 NE3 29.85F WARRENTON DRIZZLE 64 57 77 N3 29.81F CULPEPER* DRIZZLE 63 59 87 N5 29.83S MANASSAS* LGT RAIN 65 59 81 E5 29.82F LEESBURG* LGT RAIN 61 59 94 N6 29.84F WINCHESTER CLOUDY 59 52 77 E3 29.83F FRONT ROYAL* CLOUDY 59 57 94 CALM 29.82F LURAY* DRIZZLE 61 59 94 N6 29.82F $$ VAZ048-049-060>072-079>083-232300- CENTRAL AND SOUTH CENTRAL VIRGINIA CITY SKY/WX TMP DP RH WIND PRES REMARKS RICHMOND LGT RAIN 63 62 97 NE7 29.77F FOG CHESTERFIELD* NOT AVBL PETERSBURG* RAIN 62 61 96 NE9 29.77S HANOVER RAIN 63 60 90 NE5 29.79F FOG TAPPAHANNOCK* RAIN 63 63 100 NE5 29.80F QUINTON* CLOUDY 62 62 100 NE5 29.77F FOG CHARLOTTSVILLE LGT RAIN 61 58 90 N7 29.81F FOG GORDONSVILLE* CLOUDY 61 60 97 CALM 29.80F ORANGE* LGT RAIN 59 59 100 CALM 29.81F LOUISA* DRIZZLE 66 64 94 CALM 29.79S BUMPASS* CLOUDY 62 62 100 N5 29.79F FARMVILLE* RAIN 64 61 90 NE7 29.76S CREWE* CLOUDY 62 58 87 NE3 29.76F FORT PICKETT* CLOUDY N/A N/A N/A NE8 29.76F CHASE CITY* CLOUDY 63 61 94 NE7 29.74S CLARKSVILLE* CLOUDY 63 63 100 E10 29.73S SOUTH HILL* CLOUDY 62 62 100 N6 29.80S LAWRENCEVILLE* CLOUDY 63 62 97 NE6 29.74F EMPORIA* CLOUDY 63 63 100 N6 29.75F $$ VAZ088>098-232300- SOUTHEAST VIRGINIA CITY SKY/WX TMP DP RH WIND PRES REMARKS NORFOLK LGT RAIN 61 60 97 E14 29.75F VIRGINIA BEACH LGT RAIN 61 60 97 E12 29.73F FOG NORFOLK NAVAL LGT RAIN 63 60 90 E13 29.77S WEST POINT* CLOUDY 63 61 94 NE8 29.79F SALUDA* CLOUDY 62 61 99 NE7 29.79F NEWPORT NEWS LGT RAIN 62 60 93 NE8 29.77F FOG LANGLEY AFB LGT RAIN 62 62 100 E16 29.75F FORT EUSTIS LGT RAIN 62 60 93 NE7 29.75S WILLIAMSBURG* CLOUDY 64 64 100 CALM 29.78S HR EXEC AP* CLOUDY 64 61 88 NE8 29.74S FRANKLIN* RAIN 63 61 96 NE10 29.75S US460-WAKEFLD RAIN 63 62 97 VRB6 29.76S FOG $$ VAZ020-022-025-037-045-232300- WEST CENTRAL AND SOUTHWEST VIRGINIA CITY SKY/WX TMP DP RH WIND PRES REMARKS STAUNTON* LGT RAIN 58 55 89 NE3 29.84F WAYNESBORO* CLOUDY 57 57 100 N6 29.83S HOT SPRINGS VA RAIN 50 48 93 E5 29.83F VSB<1/4 LYNCHBURG LGT RAIN 59 58 96 N9 29.78F FOG DANVILLE LGT RAIN 62 62 100 NE8 29.75S SOUTH BOSTON* CLOUDY 63 62 96 NE5 29.74F MARTINSVILLE RAIN 58 57 96 CALM 29.78F ROANOKE LGT RAIN 59 58 96 N6 29.80F FOG BLACKSBURG RAIN 57 56 94 E12 29.81F DUBLIN* LGT RAIN 58 55 88 E7 29.79F MARION* LGT RAIN 58 56 90 NE10 29.78S HILLSVILLE* RAIN 57 53 86 CALM 29.76F RICHLANDS* HVY RAIN 59 59 99 CALM 29.74S WISE* HVY RAIN 61 61 100 CALM 29.75F ABINGDON* RAIN 64 64 98 E3 29.72F $$ MDZ021>025-VAZ099-100-232300- SOUTHERN MARYLAND AND THE DELMARVA PENINSULA CITY SKY/WX TMP DP RH WIND PRES REMARKS PATUXENT RIVER LGT RAIN 61 60 97 NE6 29.82F FOG BAY BRIDGE APT CLOUDY 66 54 63 SE9 29.83S LEONARDTOWN CLOUDY 59 55 88 CALM 29.83F DOVER CLOUDY 63 58 85 SE5 29.81F GEORGETOWN CLOUDY 62 53 72 NE7 29.83F EASTON MOSUNNY 63 50 63 SE5 29.86 CAMBRIDGE MOSUNNY 63 52 67 NE9 29.82F SALISBURY CLOUDY 61 56 83 E10 29.81F OCEAN CITY CLOUDY 58 54 86 E9 29.83F WALLOPS ISLAND LGT RAIN 59 59 100 NE12 29.80F ACCOMACK* LGT RAIN 60 37 41 NE9 29.79F $$ NCZ012>017-030>032-232300- NORTH CENTRAL AND EASTERN NORTH CAROLINA CITY SKY/WX TMP DP RH WIND PRES REMARKS ROANOKE RAPIDS RAIN 64 64 100 NE7 29.72F RALEIGH LGT RAIN 69 67 93 E6 29.72R ELIZABETH CITY RAIN 67 67 100 E10 29.72F FOG AHOSKIE* RAIN 65 64 99 NE5 29.72F EDENTON* LGT RAIN 70 68 93 CALM 29.72S CURRITUCK* LGT RAIN N/A N/A N/A E7 29.74S KILL DEVIL HLS RAIN 67 67 100 CALM 29.70 MANTEO CLOUDY 68 68 99 E3 29.72F CAPE HATTERAS CLOUDY 76 70 82 SW17G29 29.73F TARBORO* NOT AVBL GOLDSBORO NOT AVBL WASHINGTON RAIN 71 70 98 E5 29.70S GREENVILLE HVY RAIN 70 70 100 CALM 29.74S NEW BERN RAIN 73 72 96 S12 29.72S FOG WILMINGTON LGT RAIN 71 69 93 SW8 29.74F $$ VAZ048-232300- ELSEWHERE CITY SKY/WX TMP DP RH WIND PRES REMARKS HARRISBURG PA CLOUDY 66 54 65 CALM 29.83F BALTIMORE CLOUDY 65 59 81 E5 29.82F ANNAPOLIS CLOUDY 66 59 78 SE9 29.82F ANDREWS AFB CLOUDY 63 57 80 E7 29.81F PHILADELPHIA CLOUDY 66 52 60 E6 29.83F HENDERSON NC LGT RAIN 61 60 96 NE10G18 29.73S GREENSBORO CLOUDY 62 62 100 NE9 29.73S ROCKY MOUNT LGT RAIN 67 67 100 NE6 29.69F FOG $$ VAZ100-232300- MARINE STATION/POSITION TIME TEMP WIND PRES WAVE SWELL AIR SEA DIR/SP/G HT/PER HT/PER (UTC) (F) (DEG/KT/KT) (MB) (FT/S) (FT/S) CAPE MAY NJ 2148 61 62 60/ 5/ 10 1009.8F LEWES DE 2148 60 63 100/ 10/ 13 1010.1F 15NM E FENWICK I 2150 57 56 60/ 10/ 12 1010.2F 3/ 8 2/ 8 WACHAPREAGUE VA 2142 59 66 40/ 16/ 19 1008.2F THOMAS POINT MD 2200 63 65 120/ 10/ 11 N/A GOOSES REEF MD 2200 64 60 100/ 6/ 8 1010.7 1/ 2 COVE POINT MD 2142 62 80/ 5/ 7 1010.4F SOLOMONS ISLAND 2142 62 67 50/ 3/ 4 N/A BISHOPS HEAD MD 2142 63 67 70/ 9/ 11 1009.6F PINEY POINT MD 2148 70/ 6/ 7 N/A POTOMAC MD 2200 63 67 50/ 8/ 12 1008.4 1 CAMBRIDGE MD 2142 64 69 N/A LEWISETTA VA 2142 63 68 70/ 8/ 10 1009.3F RAPPAHANNOCK LGT 2148 50/ 11/ 12 1009.0F STINGRAY PT 2150 62 70/ 12/ 16 1008.4F YORK RVR RNG VA 2142 62 80/ 17/ 19 1007.3F YORKTOWN VA 2142 63 69 50/ 3/ 11 1007.7F JAMESTOWN VA 2200 63 72 50/ 6/ 10 N/A 0 DOMINION TERM VA 2142 63 60/ 12/ 16 1007.6F KIPTOPEKE VA 2142 66 80/ 8/ 14 N/A CHES BAY BRIDGE 2142 61 67 60/ 22/ 23 1007.1F CAPE HENRY VA 2142 61 60/ 18/ 21 N/A WILLOUBY STN VA 2142 62 70/ 17/ 19 1007.3F S CRANEY ISL VA 2142 63 70/ 14/ 18 1007.2F CAPE HENRY BUOY 2142 62 N/A 4/ 6 1ST LANDING BUOY 2200 62 67 1007.5 3/ 3 CAPE CHARLES BUO 2151 62 N/A 4/ 4 64NM E OF VA BCH 2150 67 65 80/ 17/ 19 1007.0F 4/ 4 2/ 7 DUCK PIER NC 2142 66 65 90/ 11/ 12 1006.1F 44100 DUCK FRF 2135 65 N/A 4/ 6 2/12 44056 DUCK FRF 2130 65 N/A 3/ 6 OREGON INLET NC 2148 200/ 13/ 17 1006.0F HATTERAS NC 2142 75 74 190/ 10/ 20 1006.4F DIAMOND SHLS NC 2150 76 76 190/ 23/ 27 1006.3F 6/ 5 2/ 9 CAPE LOOKOUT NC 2100 76 190/ 15/ 16 1006.5F $$

USA.gov is the U.S. government's official web portal to all federal, state and local government web resources and services.